timestamp,wind_dir_avg,wind_spd_avg,wind_spd_max_dir,wind_spd_gust,battery_voltage,lat,long
2022-05-08 00:04:00+00:00,299.0,5.92,297.0,7.02,12.73,47.59359,-54.27349
2022-05-08 00:14:01+00:00,302.0,5.6,304.0,6.81,12.41,47.59359,-54.27349
2022-05-08 00:24:01+00:00,300.0,5.63,303.0,6.09,12.41,47.59359,-54.27349
2022-05-08 00:34:01+00:00,297.0,5.76,296.0,6.39,12.41,47.59359,-54.27349
2022-05-08 00:44:01+00:00,303.0,5.24,299.0,6.04,12.41,47.59359,-54.27349
2022-05-08 00:54:01+00:00,306.0,5.49,303.0,6.87,12.41,47.59359,-54.27349
2022-05-08 01:04:01+00:00,309.0,6.41,306.0,7.08,12.41,47.59359,-54.27349
2022-05-08 01:14:01+00:00,312.0,6.2,309.0,7.17,12.41,47.59359,-54.27349
2022-05-08 01:24:01+00:00,305.0,5.42,298.0,5.9,12.41,47.59359,-54.27349
2022-05-08 01:34:01+00:00,313.0,5.36,314.0,6.84,12.41,47.59359,-54.27349
2022-05-08 01:44:01+00:00,323.0,5.45,322.0,6.56,12.41,47.59359,-54.27349
2022-05-08 01:54:01+00:00,323.0,7.75,324.0,8.96,12.41,47.59359,-54.27349
2022-05-08 02:04:01+00:00,327.0,7.62,326.0,8.79,12.41,47.59359,-54.27349
2022-05-08 02:14:00+00:00,328.0,7.67,330.0,8.87,12.33,47.59359,-54.27349
2022-05-08 02:24:00+00:00,331.0,7.42,330.0,8.35,12.33,47.59359,-54.27349
2022-05-08 02:34:00+00:00,328.0,7.13,325.0,7.67,12.33,47.59359,-54.27349
2022-05-08 02:44:00+00:00,328.0,7.43,325.0,8.98,12.33,47.59359,-54.27349
2022-05-08 02:54:00+00:00,326.0,7.02,326.0,7.66,12.33,47.59359,-54.27349
2022-05-08 03:04:00+00:00,329.0,7.33,321.0,8.63,12.33,47.59359,-54.27349
2022-05-08 03:14:01+00:00,334.0,7.02,329.0,8.05,12.33,47.59359,-54.27349
2022-05-08 03:24:01+00:00,333.0,6.81,327.0,7.66,12.33,47.59359,-54.27349
2022-05-08 03:34:01+00:00,329.0,7.05,333.0,7.54,12.33,47.59359,-54.27349
2022-05-08 03:44:01+00:00,334.0,7.47,336.0,8.48,12.33,47.59359,-54.27349
2022-05-08 03:54:01+00:00,335.0,7.04,311.0,10.71,12.33,47.59359,-54.27349
2022-05-08 04:04:01+00:00,332.0,7.38,316.0,9.34,12.33,47.59359,-54.27349
2022-05-08 04:14:01+00:00,324.0,7.53,306.0,9.29,12.25,47.59359,-54.27349
2022-05-08 04:24:01+00:00,328.0,7.23,316.0,8.63,12.25,47.59359,-54.27349
2022-05-08 04:34:01+00:00,332.0,5.75,330.0,6.62,12.25,47.59359,-54.27349
2022-05-08 04:44:01+00:00,330.0,5.41,329.0,6.91,12.25,47.59359,-54.27349
2022-05-08 04:54:01+00:00,330.0,6.37,328.0,7.25,12.25,47.59359,-54.27349
2022-05-08 05:04:01+00:00,344.0,5.74,324.0,6.95,12.25,47.59359,-54.27349
2022-05-08 05:14:01+00:00,332.0,6.03,327.0,7.15,12.25,47.59359,-54.27349
2022-05-08 05:24:01+00:00,336.0,5.97,326.0,7.16,12.25,47.59359,-54.27349
2022-05-08 05:34:01+00:00,327.0,8.17,309.0,11.63,12.25,47.59359,-54.27349
2022-05-08 05:44:01+00:00,329.0,8.27,317.0,10.28,12.25,47.59359,-54.27349
2022-05-08 05:54:01+00:00,322.0,8.62,310.0,10.93,12.25,47.59359,-54.27349
2022-05-08 06:04:01+00:00,321.0,7.28,303.0,10.74,12.25,47.59359,-54.27349
2022-05-08 06:14:01+00:00,334.0,7.51,311.0,11.34,12.25,47.59359,-54.27349
2022-05-08 06:24:01+00:00,333.0,8.55,330.0,9.81,12.25,47.59359,-54.27349
2022-05-08 06:34:01+00:00,345.0,7.95,337.0,9.31,12.25,47.59359,-54.27349
2022-05-08 06:44:01+00:00,340.0,7.8,335.0,9.29,12.25,47.59359,-54.27349
2022-05-08 06:54:01+00:00,328.0,7.62,323.0,9.06,12.25,47.59359,-54.27349
2022-05-08 07:04:01+00:00,342.0,7.24,334.0,8.61,12.25,47.59359,-54.27349
2022-05-08 07:14:00+00:00,4.0,7.47,0.0,8.3,12.17,47.59359,-54.27349
2022-05-08 07:24:00+00:00,356.0,7.05,334.0,8.25,12.17,47.59359,-54.27349
2022-05-08 07:34:00+00:00,5.0,6.26,331.0,7.33,12.17,47.59359,-54.27349
2022-05-08 07:44:00+00:00,351.0,5.89,328.0,7.02,12.17,47.59359,-54.27349
2022-05-08 07:54:00+00:00,356.0,6.54,357.0,7.08,12.17,47.59359,-54.27349
2022-05-08 08:04:00+00:00,327.0,6.47,328.0,7.09,12.17,47.59359,-54.27349
2022-05-08 08:14:01+00:00,341.0,6.91,334.0,8.2,12.09,47.59359,-54.27349
2022-05-08 08:24:01+00:00,332.0,6.66,330.0,7.38,12.09,47.59359,-54.27349
2022-05-08 08:34:01+00:00,9.0,6.05,335.0,7.04,12.09,47.59359,-54.27349
2022-05-08 08:44:01+00:00,12.0,6.98,15.0,7.89,12.09,47.59359,-54.27349
2022-05-08 08:54:01+00:00,340.0,5.66,329.0,6.65,12.09,47.59359,-54.27349
2022-05-08 09:04:01+00:00,342.0,6.41,333.0,7.41,12.09,47.59359,-54.27349
2022-05-08 09:14:00+00:00,13.0,5.72,16.0,6.29,12.33,47.59359,-54.27349
2022-05-08 09:24:00+00:00,325.0,5.27,326.0,5.97,12.33,47.59359,-54.27349
2022-05-08 09:34:00+00:00,346.0,4.14,324.0,6.01,12.33,47.59359,-54.27349
2022-05-08 09:44:00+00:00,357.0,3.47,312.0,4.48,12.33,47.59359,-54.27349
2022-05-08 09:54:00+00:00,315.0,3.33,317.0,4.25,12.33,47.59359,-54.27349
2022-05-08 10:04:00+00:00,29.0,2.1,30.0,3.63,12.33,47.59359,-54.27349
2022-05-08 10:14:00+00:00,23.0,3.23,27.0,3.96,13.37,47.59359,-54.27349
2022-05-08 10:24:00+00:00,359.0,3.87,325.0,4.99,13.37,47.59359,-54.27349
2022-05-08 10:34:00+00:00,322.0,4.36,320.0,5.08,13.37,47.59359,-54.27349
2022-05-08 10:44:00+00:00,322.0,3.66,322.0,4.32,13.37,47.59359,-54.27349
2022-05-08 10:54:00+00:00,337.0,3.18,331.0,3.77,13.37,47.59359,-54.27349
2022-05-08 11:04:00+00:00,336.0,2.8,320.0,3.71,13.37,47.59359,-54.27349
2022-05-08 11:14:00+00:00,329.0,3.35,324.0,3.77,13.6,47.59359,-54.27349
2022-05-08 11:24:00+00:00,339.0,2.9,328.0,3.29,13.6,47.59359,-54.27349
2022-05-08 11:34:00+00:00,310.0,1.34,314.0,1.6,13.6,47.59359,-54.27349
2022-05-08 11:44:00+00:00,263.0,1.4,255.0,1.62,13.6,47.59359,-54.27349
2022-05-08 11:54:00+00:00,244.0,2.93,248.0,3.3,13.6,47.59359,-54.27349
2022-05-08 12:04:00+00:00,213.0,3.89,221.0,4.94,13.6,47.59359,-54.27349
2022-05-08 12:14:01+00:00,163.0,4.01,161.0,4.83,14.16,47.59359,-54.27349
2022-05-08 12:24:01+00:00,173.0,4.57,158.0,5.0,14.16,47.59359,-54.27349
2022-05-08 12:34:01+00:00,160.0,4.71,160.0,5.2,14.16,47.59359,-54.27349
2022-05-08 12:44:01+00:00,160.0,5.39,160.0,5.67,14.16,47.59359,-54.27349
2022-05-08 12:54:01+00:00,164.0,3.96,158.0,4.45,14.16,47.59359,-54.27349
2022-05-08 13:04:01+00:00,167.0,4.2,160.0,4.76,14.16,47.59359,-54.27349
2022-05-08 13:14:01+00:00,203.0,5.15,211.0,6.06,13.68,47.59359,-54.27349
2022-05-08 13:24:01+00:00,192.0,5.09,207.0,5.92,13.68,47.59359,-54.27349
2022-05-08 13:34:01+00:00,192.0,5.52,208.0,6.21,13.68,47.59359,-54.27349
2022-05-08 13:44:01+00:00,206.0,6.27,212.0,7.14,13.68,47.59359,-54.27349
2022-05-08 13:54:01+00:00,199.0,6.56,204.0,7.33,13.68,47.59359,-54.27349
2022-05-08 14:04:01+00:00,195.0,6.07,209.0,6.93,13.68,47.59359,-54.27349
2022-05-08 14:14:01+00:00,209.0,7.06,209.0,7.52,14.4,47.59359,-54.27349
2022-05-08 14:24:01+00:00,206.0,7.6,205.0,8.41,14.4,47.59359,-54.27349
2022-05-08 14:34:01+00:00,200.0,8.33,202.0,9.38,14.4,47.59359,-54.27349
2022-05-08 14:44:01+00:00,207.0,9.21,222.0,11.39,14.4,47.59359,-54.27349
2022-05-08 14:54:01+00:00,211.0,8.86,227.0,11.47,14.4,47.59359,-54.27349
2022-05-08 15:04:01+00:00,222.0,10.23,230.0,12.09,14.4,47.59359,-54.27349
2022-05-08 15:14:01+00:00,215.0,9.77,226.0,12.54,13.68,47.59359,-54.27349
2022-05-08 15:24:01+00:00,212.0,9.52,225.0,12.29,13.68,47.59359,-54.27349
2022-05-08 15:34:01+00:00,207.0,9.33,220.0,11.36,13.68,47.59359,-54.27349
2022-05-08 15:44:01+00:00,209.0,9.46,223.0,11.6,13.68,47.59359,-54.27349
2022-05-08 15:54:01+00:00,215.0,9.78,222.0,11.59,13.68,47.59359,-54.27349
2022-05-08 16:04:01+00:00,215.0,10.16,222.0,11.46,13.68,47.59359,-54.27349
2022-05-08 16:14:01+00:00,210.0,9.65,209.0,10.97,13.68,47.59359,-54.27349
2022-05-08 16:24:01+00:00,215.0,10.06,226.0,12.18,13.68,47.59359,-54.27349
2022-05-08 16:34:01+00:00,213.0,10.5,217.0,12.1,13.68,47.59359,-54.27349
2022-05-08 16:44:01+00:00,213.0,10.36,214.0,11.75,13.68,47.59359,-54.27349
2022-05-08 16:54:01+00:00,212.0,10.57,218.0,12.03,13.68,47.59359,-54.27349
2022-05-08 17:04:01+00:00,213.0,10.94,213.0,11.83,13.68,47.59359,-54.27349
2022-05-08 17:14:00+00:00,213.0,11.53,215.0,12.68,14.32,47.59359,-54.27349
2022-05-08 17:24:00+00:00,204.0,10.41,213.0,11.76,14.32,47.59359,-54.27349
2022-05-08 17:34:00+00:00,212.0,10.59,211.0,11.79,14.32,47.59359,-54.27349
2022-05-08 17:44:00+00:00,210.0,9.97,210.0,11.66,14.32,47.59359,-54.27349
2022-05-08 17:54:00+00:00,209.0,10.48,207.0,11.96,14.32,47.59359,-54.27349
2022-05-08 18:04:00+00:00,208.0,11.12,208.0,12.1,14.32,47.59359,-54.27349
2022-05-08 18:14:01+00:00,201.0,9.25,202.0,11.51,13.92,47.59359,-54.27349
2022-05-08 18:24:01+00:00,211.0,10.91,209.0,11.97,13.92,47.59359,-54.27349
2022-05-08 18:34:01+00:00,211.0,11.2,212.0,12.84,13.92,47.59359,-54.27349
2022-05-08 18:44:01+00:00,210.0,10.93,212.0,12.51,13.92,47.59359,-54.27349
2022-05-08 18:54:01+00:00,210.0,11.38,213.0,12.26,13.92,47.59359,-54.27349
2022-05-08 19:04:01+00:00,209.0,11.31,207.0,12.25,13.92,47.59359,-54.27349
2022-05-08 19:14:00+00:00,209.0,10.98,209.0,12.13,13.68,47.59359,-54.27349
2022-05-08 19:24:00+00:00,209.0,10.39,206.0,11.56,13.68,47.59359,-54.27349
2022-05-08 19:34:00+00:00,212.0,10.2,210.0,11.46,13.68,47.59359,-54.27349
2022-05-08 19:44:00+00:00,210.0,9.6,211.0,10.47,13.68,47.59359,-54.27349
2022-05-08 19:54:00+00:00,211.0,9.21,213.0,10.5,13.68,47.59359,-54.27349
2022-05-08 20:04:00+00:00,212.0,8.96,210.0,10.3,13.68,47.59359,-54.27349
2022-05-08 20:14:01+00:00,211.0,7.83,209.0,9.46,13.76,47.59359,-54.27349
2022-05-08 20:24:01+00:00,223.0,6.88,229.0,8.33,13.76,47.59359,-54.27349
2022-05-08 20:34:01+00:00,232.0,5.15,243.0,7.36,13.76,47.59359,-54.27349
2022-05-08 20:44:01+00:00,250.0,4.44,254.0,6.28,13.76,47.59359,-54.27349
2022-05-08 20:54:01+00:00,284.0,6.31,289.0,7.32,13.76,47.59359,-54.27349
2022-05-08 21:04:01+00:00,285.0,6.53,291.0,8.01,13.76,47.59359,-54.27349
2022-05-08 21:14:01+00:00,286.0,7.26,285.0,7.99,13.68,47.59359,-54.27349
2022-05-08 21:24:01+00:00,287.0,7.04,290.0,7.78,13.68,47.59359,-54.27349
2022-05-08 21:34:01+00:00,287.0,7.03,287.0,7.73,13.68,47.59359,-54.27349
2022-05-08 21:44:01+00:00,283.0,8.86,277.0,12.81,13.68,47.59359,-54.27349
2022-05-08 21:54:01+00:00,290.0,8.83,286.0,11.47,13.68,47.59359,-54.27349
2022-05-08 22:04:01+00:00,283.0,7.63,277.0,8.29,13.68,47.59359,-54.27349
2022-05-08 22:14:01+00:00,278.0,7.28,277.0,8.04,13.44,47.59359,-54.27349
2022-05-08 22:24:01+00:00,275.0,9.68,274.0,13.59,13.44,47.59359,-54.27349
2022-05-08 22:34:01+00:00,273.0,12.83,274.0,14.46,13.44,47.59359,-54.27349
2022-05-08 22:44:01+00:00,269.0,8.21,268.0,10.15,13.44,47.59359,-54.27349
2022-05-08 22:54:01+00:00,269.0,6.82,268.0,7.44,13.44,47.59359,-54.27349
2022-05-08 23:04:01+00:00,267.0,6.59,267.0,7.38,13.44,47.59359,-54.27349
2022-05-08 23:14:01+00:00,256.0,5.46,253.0,6.01,12.89,47.59359,-54.27349
2022-05-08 23:24:01+00:00,236.0,4.14,233.0,4.84,12.89,47.59359,-54.27349
2022-05-08 23:34:01+00:00,230.0,4.72,242.0,7.01,12.89,47.59359,-54.27349
2022-05-08 23:44:01+00:00,205.0,6.88,218.0,8.15,12.89,47.59359,-54.27349
2022-05-08 23:54:01+00:00,183.0,7.71,201.0,8.38,12.89,47.59359,-54.27349
